Location: Bailleul
(50.3375°N, 2.8513°E)
Time: 09:39:19
(UTC+00:00)

BREEZE-M DEB (TANK) - Pass Details

Date: 16 June 2021
Orbit: 332 x 16574 km, 49.3° (Epoch: 27 July)

Event Time Altitude Azimuth Distance (km) Brightness Sun altitude
Rises 22:48:47 0° 232° (SW) 7,249 7.8 -15.1°
Reaches altitude 10° 22:55:39 10° 228° (SW) 4,354 6.6 -15.3°
Maximum altitude 23:03:35 39° 163° (SSE) 1,114 3.3 -15.6°
Drops below altitude 10° 23:06:35 10° 91° (E) 1,638 4.6 -15.7°
Sets 23:08:02 0° 81° (E) 2,284 5.5 -15.7°
